{"data":{"norad_id":59549,"intl_designator":"2024-074R","name":"STARLINK-31722","alt_names":[],"object_type":"PAYLOAD","status":"ACTIVE","operator":null,"country":"US","launch_date":"2024-04-18","launch_site_code":"AFETR","launch_vehicle":null,"mission":null,"orbit_class":"UNKNOWN","rcs_meters":null,"size_class":null,"mass_kg":null,"dimensions":null,"purposes":["comms"],"wikipedia_slug":null,"has_3d_model":false,"image_url":null,"decayed_at":null,"tle_current":{"epoch":"2026-05-24T16:45:37.359648Z","epoch_age_seconds":97582,"freshness":"FRESH","line1":"1 59549U 24074R   26144.69834907  .00003403  00000+0  13318-3 0  9990","line2":"2 59549  43.0012 273.8608 0000949 278.0606  82.0138 15.27567651117645","mean_motion":15.27567651,"eccentricity":9.49e-5,"inclination_deg":43.0012,"raan_deg":273.8608,"arg_perigee_deg":278.0606,"mean_anomaly_deg":82.0138,"bstar":0.00013318,"rev_number":11764,"period_min":94.26751077488,"perigee_km":482.4349435676,"apogee_km":483.73720370698,"semimajor_km":6861.2230736373,"source":"CELESTRAK","updated_at":"2026-05-25T13:38:18.982203Z"}}}